Home > Weather > Regina > Past weeks

Flag for Canada Past Weather in Regina, Saskatchewan, Canada — Yesterday and Last 2 Weeks

Now
72 °F

Partly sunny.


Feels Like: 75 °F
Forecast: 55 / 78 °F
Wind: 3 mph from West

Location: Regina Weather Station

Current Time: Jun 28, 2016 at 9:52:59 PM

Latest Report: Jun 28, 2016 at 9:00 PM


Visibility: 15 mi

Pressure: 30.10 "Hg (28.16 "Hg at 577m altitude)

Humidity: 65%

Dew Point: 59 °F

Location of ReginaLocation

Past Weather in Regina — Graph

°F

Regina Temperature Yesterday

Maximum temperature yesterday: 73 °F (at 6:00 PM)
Minimum temperature yesterday: 54 °F (at 6:00 AM)
Average temperature yesterday: 63 °F

High & Low Weather Summary for the Past Weeks

 TemperatureHumidityPressure
High81 °F (Jun 24, 3:00 PM)100% (Jun 15, 1:00 AM)30.34 "Hg (Jun 15, 1:00 AM)
Low45 °F (Jun 17, 4:00 AM)31% (Jun 17, 5:00 PM)29.62 "Hg (Jun 14, 7:00 PM)
Average63 °F72%29.97 "Hg
* Reported Jun 13 8:00 PM — Jun 28 8:00 PM, Regina, Weather by CustomWeather, © 2016

Note: Actual official high and low records may vary slightly from our data, if they occured in-between our weather recording intervals... More about our weather records

Advertising

Regina Weather History for the Previous 24 Hours

Scroll right to see more
 ConditionsComfort  
Time TempWeatherWind HumidityBarometerVisibility
8:00 PM
Tue, Jun 28
73 °FScattered clouds.5 mph65%30.10 "Hg15 mi
7:00 PM77 °FScattered clouds.6 mph51%30.11 "Hg15 mi
6:00 PM79 °FPassing clouds.6 mph48%30.11 "Hg15 mi
5:00 PM79 °FScattered clouds.7 mph42%30.14 "Hg15 mi
4:00 PM79 °FBroken clouds.12 mph45%30.15 "Hg15 mi
3:00 PM79 °FBroken clouds.5 mph45%30.17 "Hg15 mi
2:00 PM77 °FPartly sunny.6 mph44%30.19 "Hg15 mi
1:00 PM77 °FPartly sunny.12 mph44%30.20 "Hg15 mi
12:00 PM77 °FPartly sunny.9 mph47%30.21 "Hg15 mi
11:00 AM75 °FScattered clouds.7 mph50%30.22 "Hg15 mi
10:00 AM73 °FPassing clouds.5 mph61%30.22 "Hg15 mi
9:00 AM70 °FPassing clouds.7 mph73%30.24 "Hg15 mi
8:00 AM63 °FPassing clouds.6 mph77%30.24 "Hg15 mi
7:00 AM57 °FPassing clouds.5 mph88%30.25 "Hg15 mi
6:00 AM54 °FPassing clouds.6 mph94%30.25 "Hg15 mi
5:00 AM50 °FPassing clouds.5 mph100%30.25 "Hg15 mi
4:00 AM52 °FClear.2 mph94%30.26 "Hg15 mi
3:00 AM52 °FClear.6 mph94%30.25 "Hg15 mi
2:00 AM54 °FClear.9 mph94%30.26 "Hg15 mi
1:00 AM54 °FClear.8 mph94%30.27 "Hg15 mi
12:00 AM55 °FClear.9 mph88%30.27 "Hg15 mi
11:00 PM
Mon, Jun 27
57 °FClear.8 mph88%30.28 "Hg15 mi
10:00 PM59 °FPassing clouds.8 mph88%30.27 "Hg15 mi
9:00 PM66 °FPassing clouds.6 mph73%30.26 "Hg15 mi
Weather by CustomWeather, © 2016

See weather overviewHow to use our weather pages